N3TJJ-11 Weather Reports


time (UTC)temp
C
wind
direction
speed
KPH
gust
KPH
rain 1hr
cm
rain 24hr
cm
rain mn
cm
humidity
%
barometer
mb
20260504081353 8 244 8.0 12.9 0.00 0.00 0.00 51 1013.3
20260504081147 8 252 8.0 11.3 0.00 0.00 0.00 51 1013.4
20260504080347 8 244 8.0 11.3 0.00 0.00 0.00 52 1013.4
20260504070348 8 225 8.0 9.7 0.00 0.00 0.00 52 1013.5
20260504050349 8 242 6.4 12.9 0.00 0.00 0.00 51 1013.8
20260504045947 8 246 8.0 12.9 0.00 0.00 0.00 51 1013.8
20260504045348 8 248 8.0 12.9 0.00 0.00 0.00 51 1013.8
20260504044747 8 242 6.4 8.0 0.00 0.00 0.00 52 1013.8
20260504044348 8 247 8.0 11.3 0.00 0.00 0.00 52 1013.8
20260504043547 8 233 8.0 12.9 0.00 0.00 0.00 51 1013.8
20260504043348 8 236 8.0 12.9 0.00 0.00 0.00 50 1013.8
20260504042347 9 246 6.4 8.0 0.00 0.00 0.00 50 1013.7
20260504041348 8 239 6.4 9.7 0.00 0.00 0.00 50 1013.6
20260504041147 8 242 6.4 8.0 0.00 0.00 0.00 51 1013.5
20260504040348 8 255 6.4 6.4 0.00 0.00 0.00 50 1013.4
20260504035947 9 251 6.4 8.0 0.00 0.00 0.00 50 1013.4
20260504035348 9 243 6.4 8.0 0.00 0.00 0.00 50 1013.5
20260504034747 9 233 4.8 6.4 0.00 0.00 0.00 50 1013.4
20260504034348 9 243 4.8 6.4 0.00 0.00 0.00 50 1013.4
20260504033547 9 240 4.8 6.4 0.00 0.00 0.00 50 1013.4
20260504033348 9 246 4.8 8.0 0.00 0.00 0.00 50 1013.4
20260504032347 9 253 6.4 6.4 0.00 0.00 0.00 49 1013.4
20260504031348 9 241 4.8 8.0 0.00 0.00 0.00 49 1013.3
20260504031147 9 255 4.8 8.0 0.00 0.00 0.00 49 1013.3
20260504030348 10 244 6.4 8.0 0.00 0.00 0.00 48 1013.3
20260504025947 10 250 6.4 11.3 0.00 0.00 0.00 48 1013.2
20260504025348 10 244 4.8 6.4 0.00 0.00 0.00 48 1013.2
20260504024747 9 243 4.8 6.4 0.00 0.00 0.00 48 1013.1
20260504024351 9 248 4.8 4.8 0.00 0.00 0.00 48 1013.1
20260504023547 10 249 6.4 8.0 0.00 0.00 0.00 48 1013.2
20260504023349 10 238 6.4 8.0 0.00 0.00 0.00 47 1013.2
20260504022347 10 244 4.8 6.4 0.00 0.00 0.00 48 1013.3
20260504021348 10 249 4.8 4.8 0.00 0.00 0.00 47 1013.3
20260504021147 10 248 4.8 6.4 0.00 0.00 0.00 47 1013.3
20260504020349 10 247 4.8 6.4 0.00 0.00 0.00 47 1013.3
20260504015947 10 245 6.4 6.4 0.00 0.00 0.00 47 1013.3
20260504015348 10 242 4.8 8.0 0.00 0.00 0.00 47 1013.3
20260504014747 10 240 4.8 6.4 0.00 0.00 0.00 48 1013.2
20260504014349 10 240 6.4 6.4 0.00 0.00 0.00 47 1013.2
20260504013547 10 242 6.4 8.0 0.00 0.00 0.00 47 1013.1
20260504013348 10 238 4.8 8.0 0.00 0.00 0.00 48 1013.1
20260504012347 10 248 3.2 4.8 0.00 0.00 0.00 48 1013.0
20260504011349 10 251 3.2 4.8 0.00 0.00 0.00 47 1012.9
20260504011147 10 246 3.2 4.8 0.00 0.00 0.00 47 1012.8
20260504010348 10 237 4.8 6.4 0.00 0.00 0.00 47 1012.9
20260504005947 10 244 3.2 6.4 0.00 0.00 0.00 46 1012.9
20260504005350 10 265 3.2 3.2 0.00 0.00 0.00 47 1012.8
20260504004747 10 273 3.2 3.2 0.00 0.00 0.00 46 1012.7
20260504004348 10 257 3.2 4.8 0.00 0.00 0.00 46 1012.6
20260504003547 10 254 3.2 4.8 0.00 0.00 0.00 47 1012.7
20260504003348 10 254 3.2 4.8 0.00 0.00 0.00 47 1012.6
20260504002347 11 277 3.2 4.8 0.00 0.00 0.00 46 1012.4
20260504001349 11 271 3.2 4.8 0.00 0.00 0.00 45 1012.4
20260504001147 11 271 4.8 4.8 0.00 0.00 0.00 45 1012.4
20260504000348 11 281 4.8 6.4 0.00 0.00 0.00 46 1012.2
20260503235947 11 281 6.4 8.0 0.00 0.00 0.00 44 1012.2
20260503235349 11 293 6.4 6.4 0.00 0.00 0.00 46 1012.1
20260503234747 11 292 8.0 14.5 0.00 0.00 0.00 44 1012.1
20260503234348 11 297 6.4 14.5 0.00 0.00 0.00 44 1012.0
20260503233547 12 290 4.8 6.4 0.00 0.00 0.00 44 1012.0
20260503233348 12 280 4.8 6.4 0.00 0.00 0.00 43 1012.0
20260503232347 12 299 8.0 12.9 0.00 0.00 0.00 39 1012.0
20260503231348 13 295 9.7 16.1 0.00 0.00 0.00 39 1012.0
20260503231147 13 292 8.0 14.5 0.00 0.00 0.00 39 1012.0
20260503230348 13 338 8.0 14.5 0.00 0.00 0.00 38 1012.0
20260503225947 13 302 11.3 14.5 0.00 0.00 0.00 39 1012.0
20260503225348 13 290 9.7 17.7 0.00 0.00 0.00 39 1012.0
20260503224747 13 296 11.3 14.5 0.00 0.00 0.00 38 1012.0
20260503224348 13 316 12.9 24.1 0.00 0.00 0.00 37 1012.0
20260503223547 13 311 12.9 19.3 0.00 0.00 0.00 40 1011.9
20260503223349 13 298 14.5 25.7 0.00 0.00 0.00 38 1011.9
20260503222347 13 297 12.9 20.9 0.00 0.00 0.00 39 1012.0
20260503221348 13 288 9.7 20.9 0.00 0.00 0.00 37 1012.0
20260503221147 13 309 8.0 17.7 0.00 0.00 0.00 38 1012.0
20260503220349 13 355 8.0 14.5 0.00 0.00 0.00 36 1012.0
20260503215947 13 355 8.0 16.1 0.00 0.00 0.00 36 1012.0
20260503215348 13 10 11.3 16.1 0.00 0.00 0.00 39 1012.0
20260503214747 13 327 14.5 24.1 0.00 0.00 0.00 37 1012.0
20260503214349 13 295 14.5 24.1 0.00 0.00 0.00 37 1011.9
20260503213547 13 330 16.1 32.2 0.00 0.00 0.00 36 1011.9
20260503213349 13 317 12.9 24.1 0.00 0.00 0.00 38 1011.9
20260503212348 13 12 8.0 16.1 0.00 0.00 0.00 38 1011.9
20260503211349 12 288 9.7 16.1 0.00 0.00 0.00 38 1011.9
20260503211148 12 313 11.3 16.1 0.00 0.00 0.00 37 1011.9
20260503210349 13 311 14.5 20.9 0.00 0.00 0.00 35 1011.9
20260503205948 13 308 14.5 24.1 0.00 0.00 0.00 39 1011.9
20260503205349 13 355 11.3 24.1 0.00 0.00 0.00 37 1011.9
20260503204748 13 280 8.0 16.1 0.00 0.00 0.00 38 1011.8
20260503204349 13 315 11.3 16.1 0.00 0.00 0.00 34 1011.8
20260503203548 13 323 11.3 24.1 0.00 0.00 0.00 36 1011.9
20260503203349 13 326 11.3 24.1 0.00 0.00 0.00 37 1011.9
20260503202348 13 343 14.5 29.0 0.00 0.00 0.00 35 1012.0
20260503201349 13 279 12.9 22.5 0.00 0.00 0.00 39 1011.8
20260503201148 13 277 11.3 30.6 0.00 0.00 0.00 38 1012.0
20260503200349 12 297 16.1 25.7 0.00 0.00 0.00 35 1012.2
20260503195948 13 271 16.1 24.1 0.00 0.00 0.00 39 1012.2
20260503195349 12 333 17.7 32.2 0.00 0.00 0.00 40 1012.3
20260503194748 12 333 16.1 33.8 0.00 0.00 0.00 37 1012.3
20260503194349 12 289 14.5 33.8 0.00 0.00 0.00 37 1012.3
20260503193548 12 333 14.5 25.7 0.00 0.00 0.00 38 1012.5
20260503193349 12 322 16.1 25.7 0.00 0.00 0.00 38 1012.5
20260503192348 12 262 17.7 35.4 0.00 0.00 0.00 37 1012.6
20260503191350 12 348 9.7 16.1 0.00 0.00 0.00 40 1012.6
20260503191148 12 0 9.7 16.1 0.00 0.00 0.00 39 1012.7
20260503190349 12 355 12.9 25.7 0.00 0.00 0.00 38 1012.7
20260503185948 12 355 12.9 29.0 0.00 0.00 0.00 38 1012.8
20260503185349 12 316 16.1 27.4 0.00 0.00 0.00 39 1012.8
20260503184748 12 288 14.5 29.0 0.00 0.00 0.00 41 1012.9
20260503184349 11 343 12.9 20.9 0.00 0.00 0.00 43 1012.9
20260503183548 11 321 11.3 19.3 0.00 0.00 0.00 42 1013.1
20260503183349 11 355 14.5 19.3 0.00 0.00 0.00 40 1013.2
20260503182348 11 294 12.9 24.1 0.00 0.00 0.00 39 1013.2
20260503181349 11 325 16.1 25.7 0.00 0.00 0.00 41 1013.1
20260503181148 11 311 16.1 25.7 0.00 0.00 0.00 41 1013.0
20260503180349 11 325 12.9 30.6 0.00 0.00 0.00 40 1013.2
20260503175948 11 331 11.3 27.4 0.00 0.00 0.00 39 1013.3
20260503175349 11 320 11.3 19.3 0.00 0.00 0.00 41 1013.2
20260503174748 11 322 14.5 25.7 0.00 0.00 0.00 41 1013.4
20260503174349 11 355 12.9 25.7 0.00 0.00 0.00 41 1013.2
20260503173548 10 355 16.1 22.5 0.00 0.00 0.00 45 1013.3
20260503173349 10 13 17.7 25.7 0.00 0.00 0.00 46 1013.4
20260503172348 10 329 14.5 27.4 0.00 0.00 0.00 41 1013.4
20260503171349 10 301 17.7 33.8 0.00 0.00 0.00 40 1013.6
20260503171148 10 344 17.7 33.8 0.00 0.00 0.00 42 1013.6
20260503170349 10 342 19.3 29.0 0.00 0.00 0.00 41 1013.4
20260503150350 8 348 12.9 22.5 0.00 0.00 0.00 47 1014.0
20260503131349 6 5 12.9 22.5 0.00 0.00 0.00 62 1014.0
20260503131148 5 15 14.5 19.3 0.00 0.00 0.00 62 1013.9
20260503130349 6 10 14.5 22.5 0.00 0.00 0.00 61 1013.8
20260503110349 3 330 9.7 17.7 0.00 0.00 0.00 68 1012.9